Location: Tamazert
(32.6352°N, 5.2072°W)
Time: 17:07:57
(UTC+00:00)

Meteor 2-5 Rocket - Pass Details

Date: 22 May 2022
Orbit: 832 x 912 km, 81.2° (Epoch: 06 July)

Event Time Altitude Azimuth Distance (km) Brightness Sun altitude
Exits shadow 02:59:56 39° 279° (W) 1,302 4.4 -24.3°
Maximum altitude 03:00:04 39° 282° (WNW) 1,300 4.4 -24.3°
Drops below altitude 10° 03:05:26 10° 351° (N) 2,531 6.6 -23.5°
Sets 03:08:02 0° 359° (N) 3,459 7.5 -23.1°
